Regional Weather Roundup
Issued by NWS

Home | Current Version | Previous Version | Graphics & Text | Print | Product List | Glossary On
Versions: 1 2 3 4 5 6 7 8 9 10 11 12 13 14 15 16 17 18 19 20 21 22 23 24 25 26 27 28 29 30 31 32 33 34 35 36 37 38 39 40 41 42 43 44 45 46 47 48 49 50
449
ASUS43 KLMK 241310
RWRKY
KENTUCKY REGIONAL WEATHER ROUNDUP
NATIONAL WEATHER SERVICE LOUISVILLE KY
900 AM EDT SUN JUL 24 2016

NOTE "FAIR" INDICATES FEW OR NO CLOUDS BELOW 12,000 FEET
WITH NO SIGNIFICANT WEATHER AND/OR OBSTRUCTIONS TO VISIBILITY.

KYZ001>023-026-027-061>063-070>075-241400-
WESTERN AND SOUTH CENTRAL KENTUCKY

CITY           SKY/WX    TMP DP  RH WIND       PRES   REMARKS
PADUCAH        SUNNY     82  75  79 CALM      29.98R
HENDERSON      SUNNY     79  73  83 S3        29.98R
OWENSBORO      SUNNY     81  77  88 S9        30.00R
HOPKINSVILLE   SUNNY     79  74  85 S5        30.01R
BOWLING GREEN  SUNNY     79  72  79 S5        30.03R
GLASGOW        SUNNY     77  73  86 S3        30.04R
$$

KYZ024-025-028>034-038-045-046-053-241400-
NORTH CENTRAL KENTUCKY

CITY           SKY/WX    TMP DP  RH WIND       PRES   REMARKS
LOUISVILLE/SDF CLOUDY    82  75  79 CALM      30.00R
LOUISVILLE/LOU SUNNY     81  74  79 S3        30.01R
FORT KNOX      MOSUNNY   79  75  87 S5        30.01R
$$

KYZ035>037-039>044-047>052-055>060-089>105-241400-
NORTHEAST KENTUCKY

CITY           SKY/WX    TMP DP  RH WIND       PRES   REMARKS
LEXINGTON      SUNNY     81  73  76 SW7       30.04R
COVINGTON      PTSUNNY   79  75  87 S5        30.02R
FRANKFORT      SUNNY     79  73  82 S8        30.02R
$$

KYZ054-064>069-076>088-106>120-241400-
SOUTHEAST KENTUCKY

CITY           SKY/WX    TMP DP  RH WIND       PRES   REMARKS
JACKSON        CLOUDY    76  72  87 CALM      30.07R
LONDON         CLOUDY    78  71  79 S7        30.07R
SOMERSET       SUNNY     73  72  94 S3        30.07R
MIDDLESBORO    SUNNY     75  72  90 CALM      30.10R
MONTICELLO     SUNNY    N/A N/A N/A VRB7      30.08R
$$





USA.gov is the U.S. government's official web portal to all federal, state and local government web resources and services.